COSMOS 2251 DEB, 47045

Orbit data source: Space-Track

COSMOS 2251 DEB, 47045 is space debris in LEO originally from a launch on Wed, 16 Jun 1993 UTC launched from the Plesetsk Missile And Space Complex (PKMTR). The debris from Iridium 33, an American commercial communications satellite, has been tracked extensively since its accidental collision with the defunct Russian satellite Cosmos 2251 in 2009. This event, occurring at high speed in low Earth orbit (LEO), generated thousands of pieces of space debris, significantly increasing the risk of further collisions. The Iridium 33 debris cloud has impacted space traffic management and orbital debris mitigation strategies, making it a subject of ongoing study in space situational awareness.

Loading next visibility...
Identifier
47045, 1993-036BWZ
Orbit
LEO
Country
Flag of CISCIS
Related business
Manufacturer
Unknown
Mission
Spacecraft
Bus & Motor
Unknown
Mass
Unknown
Launch date (UTC)
1993-06-16 (33 years ago)
Launch vehicle
Unknown
Launch site
Plesetsk Missile And Space Complex (PKMTR)
Object type
Payload
Rocket body
Debris
Shape & HBR
Unknown shape, 0.1 m
Radar Cross Section
Small (<0.1 m²)

Expand to show TLE details & history
Last TLE update: 5 days ago

TLE from 5 days ago
0 COSMOS 2251 DEB
1 47045U 93036BWZ 26259.53119017  .00000108  00000-0  43276-4 0  9997
2 47045  74.0611 357.4334 0028184  68.4732 305.2788 14.39020967118018
Epoch: 2026-09-16T12:44Z
TLE epoch observation values (Epoch: 2026-09-16T12:44:54.830Z)
Latitude
12.92886°
Longitude
174.46242°
Altitude
752.011 km
Speed
7.486 km/s
True Right ascension
00h 04m 41s
True Declination
12° 51' 14"
Sunlit
Object was in full shadow at epoch
Visualization orbit readout
Latitude
Unknown
Longitude
Unknown
Altitude
Unknown
Speed
Unknown
Apparent Right ascension
Unknown
Apparent Declination
Unknown
Sunlit
N/A
Visualization observer readout
Local Sidereal Time
06:00:25
Azimuth
Unknown
Elevation
Unknown
Doppler factor
Unknown
Orbital elements
Apogee altitude
779.47 km
Perigee altitude
739.237 km
Semi-major axis
7,137.491 km
Eccentricity
0.00282
Inclination
74.0611°
RAAN
357.4334°
Arg. of periapsis
68.4732°
True anomaly
305.01461°
Mean anomaly
305.2788°
Eccentric anomaly
305.14676°
Mean motion
3.59936 °/min
Orbital period
100.02 mins
BSTAR
0.000043276

Documentation

Showing up to 5 results
|